User: anonymous   Login
Location: Chiroubles
(46.1812°N, 4.6660°E)
Time: 18:35:58
(UTC+00:00)
Language:

Cosmos 1536 - Orbit

View from above orbital plane
View from above orbital plane
View from above satellite
View from above satellite

Ground track
Ground track

The orbit data is extracted from the following two-line orbital elements,

1 14699U 84013A   20297.89415616 +.00000177 +00000-0 +10236-4 0  9996
2 14699 082.5287 223.2387 0012379 190.2947 169.8029 15.05653849976186
Epoch (UTC): 23 October 2020 21:27:35
Eccentricity: 0.0012379
inclination: 82.5287°
perigee height: 541 km
apogee height: 558 km
right ascension of ascending node: 223.2387°
argument of perigee: 190.2947°
revolutions per day: 15.05653849
mean anomaly at epoch: 169.8029°
orbit number at epoch: 97618

The dashed part of the orbit path shows where the satellite is in the earth's shadow,  

DLR